date,time,DOY,Ta_1_1_1,Pa_1_1_1,RH_1_1_1,LWin_1_1_1,LWout_1_1_1,SWin_1_1_1,SWout_1_1_1,PPFD_1_1_1,MWS_1_1_1,WD_1_1_1,SWC_1_1_1,Ts_1_1_1
[yyyy-mm-dd],[HH:MM],[ddd.ddd],[K],[Pa],[%],[W+1m-2],[W+1m-2],[W+1m-2],[W+1m-2],[µmol+1m-2s-1],[m+1s-1],[deg],[m+3m-3],[K]
2018-04-30,00:30,120.020,286.46899999999999,95072.966666666660,21.671666666666674,370.84166666666664,286.33900000000000,15.192666666666668,86.333000000000013,168.62166666666664,5.1033333333333335,155.41066666666666,0.40000000000000019,273.30066666666670
2018-04-30,01:00,120.041,285.56433333333331,95055.666666666672,23.910999999999998,364.21399999999994,284.79066666666671,5.6933333333333334,23.121000000000002,49.745333333333356,4.3233333333333341,151.38900000000001,0.40000000000000019,273.29733333333348
2018-04-30,01:30,120.062,284.73666666666674,95042.233333333337,25.792000000000005,358.51500000000004,282.96933333333334,1.0253333333333332,-3.0173333333333336,4.2720000000000002,4.3499999999999996,155.04466666666667,0.40000000000000019,273.30166666666679
2018-04-30,02:00,120.083,283.85333333333335,95029.333333333328,27.606333333333339,354.66333333333336,282.28099999999995,0.60666666666666669,-5.1483333333333325,4.86666666666666706E-002,4.4133333333333349,150.50033333333334,0.39133333333333348,273.29633333333345
2018-04-30,02:30,120.104,283.38900000000001,95029.233333333337,28.652666666666669,352.74533333333335,280.81300000000005,0.74766666666666670,-4.8933333333333335,5.00000000000000010E-003,4.8966666666666665,149.09999999999999,0.39000000000000007,273.29700000000014
2018-04-30,03:00,120.124,283.04566666666676,95027.033333333340,29.475333333333335,351.37400000000002,282.49566666666669,0.72133333333333349,-4.6053333333333333,1.66666666666666630E-002,4.9533333333333331,152.58799999999999,0.39000000000000007,273.30200000000002
2018-04-30,03:30,120.145,282.78300000000013,95012.033333333340,29.937666666666658,350.48099999999999,285.18866666666662,0.70666666666666644,-4.2469999999999999,3.66666666666666660E-003,5.5433333333333339,155.82233333333335,0.39000000000000007,273.29600000000011
2018-04-30,04:00,120.166,282.74800000000016,95008.333333333328,29.750666666666671,350.47033333333331,286.71566666666666,0.58599999999999997,-4.0496666666666670,1.06666666666666680E-002,5.6900000000000004,159.76633333333334,0.39000000000000007,273.30166666666679
2018-04-30,04:30,120.187,282.84333333333331,94996.800000000003,28.947666666666670,351.19866666666661,287.09866666666665,0.66799999999999993,-3.9343333333333330,-2.00000000000000004E-003,6.3433333333333328,162.33333333333334,0.38266666666666693,273.29966666666678
2018-04-30,05:00,120.208,282.99566666666681,94993.899999999994,28.299666666666667,351.99833333333333,287.44400000000007,0.59466666666666668,-4.0010000000000012,-2.00000000000000004E-003,6.2566666666666659,164.05533333333332,0.38000000000000017,273.29933333333344
2018-04-30,05:30,120.229,282.67433333333344,95000.000000000000,28.720333333333325,350.68366666666668,286.35766666666660,0.45466666666666666,-4.1256666666666666,-1.00000000000000002E-003,6.2433333333333332,165.82266666666666,0.38000000000000017,273.29500000000007
2018-04-30,06:00,120.249,282.34000000000009,94997.033333333340,29.061000000000003,349.20566666666673,285.64533333333327,0.61733333333333318,-3.9523333333333337,1.00000000000000002E-002,6.0133333333333336,166.95533333333333,0.38000000000000017,273.30066666666676
2018-04-30,06:30,120.270,282.18200000000002,94988.333333333328,29.382999999999999,348.84633333333323,285.44133333333332,0.55799999999999994,-3.8546666666666676,2.03333333333333352E-002,6.4800000000000013,173.37866666666667,0.38000000000000017,273.30033333333341
2018-04-30,07:00,120.291,282.02533333333332,94989.366666666669,29.916999999999998,348.39366666666666,284.99933333333337,0.54966666666666675,-3.8470000000000013,8.66666666666666627E-003,6.7366666666666646,174.09999999999999,0.38000000000000017,273.30100000000004
2018-04-30,07:30,120.312,281.89099999999991,94968.066666666666,30.213666666666672,347.61166666666668,284.78866666666659,0.58066666666666678,-3.8626666666666671,5.00000000000000010E-003,5.8700000000000019,172.81133333333335,0.38000000000000017,273.29766666666666
2018-04-30,08:00,120.333,281.75000000000011,94949.633333333331,29.947666666666667,346.77266666666668,284.77233333333328,0.63199999999999967,-3.8190000000000008,1.33333333333333342E-002,6.0400000000000009,174.61066666666665,0.38000000000000017,273.30000000000007
2018-04-30,08:30,120.354,281.85333333333330,94930.466666666660,28.963666666666665,347.07366666666678,285.95066666666668,0.66766666666666674,-3.6750000000000003,1.06666666666666680E-002,6.0733333333333324,170.92300000000003,0.38000000000000017,273.29933333333338
2018-04-30,09:00,120.374,281.61466666666672,94908.000000000000,29.422333333333331,346.07400000000018,287.92666666666668,0.33000000000000007,-3.8440000000000003,1.39999999999999968E-002,5.3900000000000006,163.07833333333335,0.38000000000000017,273.29800000000006
2018-04-30,09:30,120.395,280.59766666666667,94890.000000000000,31.865333333333332,341.97500000000002,286.28600000000000,0.34033333333333327,-3.7123333333333335,-7.66666666666666798E-003,5.0233333333333343,156.82300000000001,0.38000000000000017,273.30300000000000
2018-04-30,10:00,120.416,280.27233333333334,94847.966666666660,32.645333333333333,340.70666666666671,285.50466666666659,0.61299999999999988,-3.2849999999999997,1.80000000000000021E-002,5.7000000000000011,160.17733333333334,0.38000000000000017,273.30066666666676
2018-04-30,10:30,120.437,280.35633333333328,94819.233333333337,32.376333333333335,341.11300000000006,286.99733333333330,0.41833333333333328,-3.1286666666666672,0.24400000000000002,6.1633333333333349,156.55566666666664,0.38000000000000017,273.30066666666670
2018-04-30,11:00,120.458,279.98166666666668,94811.733333333337,33.123333333333328,339.95466666666664,286.57566666666668,1.4703333333333330,3.5713333333333339,10.862666666666664,5.9333333333333362,161.58833333333331,0.37466666666666643,273.30000000000007
2018-04-30,11:30,120.479,279.73100000000011,94818.199999999997,33.819333333333333,339.98800000000006,288.39800000000008,8.5409999999999986,47.366333333333323,74.678666666666672,5.1366666666666667,156.56666666666666,0.36999999999999983,273.30466666666672
2018-04-30,12:00,120.499,279.78399999999993,94821.866666666669,34.080999999999996,342.78333333333342,295.65233333333333,20.156333333333336,128.56866666666664,206.25500000000002,4.1900000000000004,158.48866666666666,0.36999999999999983,273.30033333333341
2018-04-30,12:30,120.520,281.32600000000002,94810.600000000006,31.634333333333334,351.67499999999995,306.33866666666671,33.156999999999996,226.15533333333340,378.17666666666679,4.8533333333333344,156.60066666666665,0.36999999999999983,273.29766666666666
2018-04-30,13:00,120.541,283.15266666666673,94795.866666666669,30.151000000000003,360.18533333333346,310.26066666666662,37.279000000000003,270.92033333333330,492.24899999999997,5.8799999999999990,172.29966666666667,0.36999999999999983,273.30033333333341
2018-04-30,13:30,120.562,284.69300000000004,94785.100000000006,29.760999999999999,370.59566666666672,321.97566666666665,55.407999999999987,416.99266666666659,778.08233333333328,6.9233333333333329,173.01133333333334,0.36999999999999983,273.30200000000002
2018-04-30,14:00,120.583,285.69933333333330,94773.899999999994,30.367999999999999,375.93066666666653,332.51400000000001,51.673999999999992,395.29666666666668,768.22266666666667,6.6900000000000004,171.10033333333334,0.36999999999999983,273.30100000000004
2018-04-30,14:30,120.604,286.74566666666669,94752.100000000006,31.190999999999999,384.70900000000000,347.67733333333337,74.468666666666692,572.55933333333326,1121.7933333333333,7.0033333333333330,174.85466666666665,0.37366666666666692,273.30266666666677
2018-04-30,15:00,120.624,287.66666666666674,94746.533333333340,31.510666666666665,386.96433333333323,352.42833333333334,55.564000000000000,431.83233333333334,874.04033333333348,6.9533333333333331,173.02266666666668,0.38400000000000012,273.30433333333343
2018-04-30,15:30,120.645,288.46766666666662,94710.966666666660,32.564333333333337,392.73266666666655,344.93766666666670,70.430333333333323,552.42433333333315,1124.6406666666667,6.5466666666666651,175.53366666666668,0.39600000000000019,273.30200000000002
2018-04-30,16:00,120.666,289.53433333333345,94671.666666666672,32.751999999999995,400.68800000000010,355.96000000000004,78.633666666666684,622.89633333333336,1266.8026666666665,6.5466666666666651,173.03400000000002,0.40000000000000019,273.29966666666672
2018-04-30,16:30,120.687,290.53800000000007,94630.366666666669,32.990333333333332,407.37533333333334,359.91099999999994,88.063333333333347,693.79599999999994,1414.5673333333334,6.3233333333333341,173.77733333333333,0.41000000000000009,273.30000000000013
2018-04-30,17:00,120.708,291.51366666666672,94607.600000000006,32.785666666666671,410.19899999999996,370.75299999999999,69.672666666666672,557.90433333333328,1162.4976666666664,5.7333333333333334,178.34500000000000,0.41000000000000009,273.30033333333341
2018-04-30,17:30,120.729,292.19633333333331,94550.166666666672,32.520666666666678,418.54633333333345,364.95466666666658,97.561333333333323,776.61299999999983,1614.6750000000002,6.1166666666666654,156.28866666666667,0.41000000000000009,273.29700000000008
2018-04-30,18:00,120.749,293.20700000000011,94492.766666666663,32.089999999999996,425.85066666666665,378.98399999999998,104.18733333333336,839.94733333333352,1746.4203333333332,6.7900000000000009,154.62333333333336,0.41000000000000009,273.30133333333350
2018-04-30,18:30,120.770,293.49833333333339,94434.899999999994,32.961999999999989,420.23066666666665,385.07200000000000,55.920333333333339,464.60133333333334,981.27700000000027,6.7333333333333343,161.53266666666664,0.41000000000000009,273.30233333333337
2018-04-30,19:00,120.791,293.26800000000003,94389.300000000003,34.710666666666675,418.21833333333342,386.27333333333343,56.887666666666668,474.63600000000002,1015.8570000000001,7.9999999999999991,156.22233333333332,0.41000000000000009,273.29666666666674
2018-04-30,19:30,120.812,293.33233333333351,94333.533333333340,34.775999999999996,418.54966666666667,388.56800000000004,57.624666666666670,482.00833333333333,1031.7866666666666,8.9866666666666681,150.15533333333332,0.41000000000000009,273.29866666666675
2018-04-30,20:00,120.833,293.59866666666665,94261.699999999997,35.229666666666667,420.88133333333332,384.95133333333342,60.081333333333333,508.16500000000008,1082.5553333333332,8.4066666666666663,156.12233333333333,0.41000000000000009,273.29633333333345
2018-04-30,20:30,120.854,293.95866666666666,94183.666666666672,36.124333333333333,421.13999999999999,382.63033333333328,52.645333333333333,445.17933333333326,959.79833333333352,9.5399999999999991,153.98900000000000,0.41000000000000009,273.30100000000004
2018-04-30,21:00,120.874,294.21533333333332,94122.933333333334,36.928000000000011,422.73166666666663,374.90033333333338,53.663666666666686,458.99733333333342,974.98933333333309,8.7566666666666659,161.35600000000002,0.41766666666666663,273.30066666666670
2018-04-30,21:30,120.895,294.90400000000011,94092.699999999997,36.095333333333336,429.64233333333334,371.20433333333335,73.800333333333327,625.56566666666663,1316.7939999999996,8.4033333333333324,161.37833333333336,0.41999999999999998,273.29600000000011
2018-04-30,22:00,120.916,295.13666666666666,94124.333333333328,36.159333333333329,425.49733333333342,376.48833333333340,35.214000000000013,308.86300000000000,667.43533333333312,7.4166666666666679,178.05633333333336,0.41999999999999998,273.29433333333338
2018-04-30,22:30,120.937,295.33066666666679,94107.000000000000,36.028666666666666,427.72233333333332,378.97933333333327,47.580999999999989,401.86266666666671,845.57933333333312,9.1500000000000004,171.21099999999998,0.41999999999999998,273.29333333333335
2018-04-30,23:00,120.958,294.97166666666658,94132.000000000000,35.033999999999992,420.73066666666688,365.01899999999995,20.557333333333329,174.90100000000001,369.80599999999993,8.0166666666666639,182.23266666666666,0.41366666666666674,273.29366666666675
2018-04-30,23:30,120.979,294.29100000000000,94157.933333333334,35.508333333333333,415.48966666666661,368.66766666666678,14.667333333333330,119.04233333333330,253.43933333333331,6.3666666666666654,180.75500000000000,0.41000000000000009,273.29633333333339
2018-05-01,00:00,121.000,293.98533333333330,94176.433333333334,35.905666666666676,413.51433333333324,365.28166666666664,12.658333333333331,106.24033333333333,221.07966666666667,5.5599999999999978,175.53366666666665,0.41000000000000009,273.29333333333335
